Time,TemperatureF,DewpointF,PressureIn,WindDirection,WindDirectionDegrees,WindSpeedMPH,WindSpeedGustMPH,Humidity,HourlyPrecipIn,Conditions,Clouds,dailyrainin,SolarRadiationWatts/m^2,SoftwareType,DateUTC
2013-01-23 00:04:00,1.3,-5.1,30.42,SW,231,0.0,0.0,74,0.00,CLR,,0.00,0.0,WeatherDisplay:10.37,2013-01-23 06:04:00,
2013-01-23 00:09:00,1.3,-4.8,30.41,SW,231,0.0,0.0,75,0.00,CLR,,0.00,0.0,WeatherDisplay:10.37,2013-01-23 06:09:00,
2013-01-23 00:14:00,1.3,-4.8,30.41,SW,231,0.0,0.0,75,0.00,CLR,,0.00,0.0,WeatherDisplay:10.37,2013-01-23 06:14:00,
2013-01-23 00:19:00,1.2,-4.9,30.41,SW,231,0.0,0.0,75,0.00,CLR,,0.00,0.0,WeatherDisplay:10.37,2013-01-23 06:19:00,
2013-01-23 00:24:00,1.2,-4.9,30.41,SW,231,0.0,0.0,75,0.00,CLR,,0.00,0.0,WeatherDisplay:10.37,2013-01-23 06:24:00,
2013-01-23 00:29:00,1.2,-4.6,30.40,SW,231,0.0,0.0,76,0.00,CLR,,0.00,0.0,WeatherDisplay:10.37,2013-01-23 06:29:00,
2013-01-23 00:34:00,1.2,-4.6,30.40,SW,231,0.0,0.0,76,0.00,CLR,,0.00,0.0,WeatherDisplay:10.37,2013-01-23 06:34:00,
2013-01-23 00:39:00,1.2,-4.6,30.40,SW,231,0.0,0.0,76,0.00,CLR,,0.00,0.0,WeatherDisplay:10.37,2013-01-23 06:39:00,
2013-01-23 00:44:00,1.1,-4.7,30.40,SW,231,0.0,0.0,76,0.00,CLR,,0.00,0.0,WeatherDisplay:10.37,2013-01-23 06:44:00,
2013-01-23 00:49:00,1.1,-4.4,30.40,SW,231,0.0,0.0,77,0.00,CLR,,0.00,0.0,WeatherDisplay:10.37,2013-01-23 06:49:00,
2013-01-23 00:54:00,1.2,-4.3,30.40,SW,231,0.0,0.0,77,0.00,CLR,,0.00,0.0,WeatherDisplay:10.37,2013-01-23 06:54:00,
2013-01-23 00:59:00,1.3,-4.0,30.40,SW,231,0.0,0.0,78,0.00,CLR,,0.00,0.0,WeatherDisplay:10.37,2013-01-23 06:59:00,
2013-01-23 01:04:00,1.4,-3.9,30.40,SW,231,0.0,0.0,78,0.00,CLR,,0.00,0.0,WeatherDisplay:10.37,2013-01-23 07:04:00,
2013-01-23 01:09:00,1.6,-3.7,30.40,SW,231,0.0,0.0,78,0.00,CLR,,0.00,0.0,WeatherDisplay:10.37,2013-01-23 07:09:00,
2013-01-23 01:14:00,1.7,-3.6,30.40,SW,231,0.0,0.0,78,0.00,CLR,,0.00,0.0,WeatherDisplay:10.37,2013-01-23 07:14:00,
2013-01-23 01:19:00,1.9,-3.4,30.39,SW,231,0.0,0.0,78,0.00,CLR,,0.00,0.0,WeatherDisplay:10.37,2013-01-23 07:19:00,
2013-01-23 01:24:00,2.1,-3.2,30.39,SW,231,0.0,0.0,78,0.00,CLR,,0.00,0.0,WeatherDisplay:10.37,2013-01-23 07:24:00,
2013-01-23 01:29:00,2.3,-2.7,30.40,SW,231,0.0,0.0,79,0.00,CLR,,0.00,0.0,WeatherDisplay:10.37,2013-01-23 07:29:00,
2013-01-23 01:34:00,2.5,-2.8,30.40,SW,231,0.0,0.0,78,0.00,CLR,,0.00,0.0,WeatherDisplay:10.37,2013-01-23 07:34:00,
2013-01-23 01:39:00,2.7,-2.6,30.40,SW,231,0.0,0.0,78,0.00,CLR,,0.00,0.0,WeatherDisplay:10.37,2013-01-23 07:39:00,
2013-01-23 01:44:00,2.9,-2.4,30.40,SW,231,0.0,0.0,78,0.00,CLR,,0.00,0.0,WeatherDisplay:10.37,2013-01-23 07:44:00,
2013-01-23 01:49:00,3.2,-2.1,30.40,SW,231,0.0,0.0,78,0.00,CLR,,0.00,0.0,WeatherDisplay:10.37,2013-01-23 07:49:00,
2013-01-23 01:54:00,3.3,-2.0,30.40,SW,231,0.0,0.0,78,0.00,CLR,,0.00,0.0,WeatherDisplay:10.37,2013-01-23 07:54:00,
2013-01-23 01:59:00,3.5,-1.8,30.40,SW,231,0.0,0.0,78,0.00,CLR,,0.00,0.0,WeatherDisplay:10.37,2013-01-23 07:59:00,
2013-01-23 02:04:00,3.6,-1.7,30.40,SW,231,0.0,0.0,78,0.00,CLR,,0.00,0.0,WeatherDisplay:10.37,2013-01-23 08:04:00,
2013-01-23 02:09:00,3.8,-1.5,30.40,SW,231,0.0,0.0,78,0.00,CLR,,0.00,0.0,WeatherDisplay:10.37,2013-01-23 08:09:00,
2013-01-23 02:14:00,3.9,-1.4,30.40,SW,231,0.0,0.0,78,0.00,CLR,,0.00,0.0,WeatherDisplay:10.37,2013-01-23 08:14:00,
2013-01-23 02:19:00,4.1,-1.2,30.40,SW,231,0.0,0.0,78,0.00,CLR,,0.00,0.0,WeatherDisplay:10.37,2013-01-23 08:19:00,
2013-01-23 02:24:00,4.2,-1.1,30.40,SW,231,0.0,0.0,78,0.00,CLR,,0.00,0.0,WeatherDisplay:10.37,2013-01-23 08:24:00,
2013-01-23 02:29:00,4.4,-0.9,30.40,SW,231,0.0,0.0,78,0.00,CLR,,0.00,0.0,WeatherDisplay:10.37,2013-01-23 08:29:00,
2013-01-23 02:34:00,4.5,-0.8,30.40,SW,231,0.0,0.0,78,0.00,CLR,,0.00,0.0,WeatherDisplay:10.37,2013-01-23 08:34:00,
2013-01-23 02:39:00,4.7,-0.7,30.39,SW,231,0.0,0.0,78,0.00,CLR,,0.00,0.0,WeatherDisplay:10.37,2013-01-23 08:39:00,
2013-01-23 02:44:00,4.9,-0.5,30.39,SW,231,0.0,0.0,78,0.00,CLR,,0.00,0.0,WeatherDisplay:10.37,2013-01-23 08:44:00,
2013-01-23 02:49:00,5.0,-0.4,30.39,SW,231,0.0,0.0,78,0.00,CLR,,0.00,0.0,WeatherDisplay:10.37,2013-01-23 08:49:00,
2013-01-23 02:54:00,5.2,-0.2,30.39,SW,231,0.0,0.0,78,0.00,CLR,,0.00,0.0,WeatherDisplay:10.37,2013-01-23 08:54:00,
2013-01-23 02:59:00,5.4,0.0,30.39,SW,231,0.0,0.0,78,0.00,CLR,,0.00,0.0,WeatherDisplay:10.37,2013-01-23 08:59:00,
2013-01-23 03:04:00,5.6,0.2,30.39,SW,231,0.0,0.0,78,0.00,CLR,,0.00,0.0,WeatherDisplay:10.37,2013-01-23 09:04:00,
2013-01-23 03:09:00,5.6,0.2,30.38,SW,231,0.0,0.0,78,0.00,CLR,,0.00,0.0,WeatherDisplay:10.37,2013-01-23 09:09:00,
2013-01-23 03:14:00,5.7,0.3,30.38,SW,231,0.0,0.0,78,0.00,CLR,,0.00,0.0,WeatherDisplay:10.37,2013-01-23 09:14:00,
2013-01-23 03:19:00,5.9,0.2,30.38,SW,231,0.0,0.0,77,0.00,CLR,,0.00,0.0,WeatherDisplay:10.37,2013-01-23 09:19:00,
2013-01-23 03:24:00,6.0,0.3,30.38,SW,231,1.1,1.1,77,0.00,CLR,,0.00,0.0,WeatherDisplay:10.37,2013-01-23 09:24:00,
2013-01-23 03:29:00,6.1,0.4,30.38,SW,231,0.0,0.0,77,0.00,CLR,,0.00,0.0,WeatherDisplay:10.37,2013-01-23 09:29:00,
2013-01-23 03:34:00,6.2,0.5,30.38,SW,231,0.0,0.0,77,0.00,CLR,,0.00,0.0,WeatherDisplay:10.37,2013-01-23 09:34:00,
2013-01-23 03:39:00,6.3,0.6,30.38,SW,231,0.0,0.0,77,0.00,CLR,,0.00,0.0,WeatherDisplay:10.37,2013-01-23 09:39:00,
2013-01-23 03:44:00,6.4,0.7,30.38,SW,231,0.0,0.0,77,0.00,CLR,,0.00,0.0,WeatherDisplay:10.37,2013-01-23 09:44:00,
2013-01-23 03:49:00,6.5,0.5,30.37,SSE,167,3.5,3.5,76,0.00,CLR,,0.00,0.0,WeatherDisplay:10.37,2013-01-23 09:49:00,
2013-01-23 03:54:00,6.6,0.6,30.37,SSE,168,0.0,0.0,76,0.00,CLR,,0.00,0.0,WeatherDisplay:10.37,2013-01-23 09:54:00,
2013-01-23 03:59:00,6.6,0.6,30.37,SSE,168,0.0,0.0,76,0.00,CLR,,0.00,0.0,WeatherDisplay:10.37,2013-01-23 09:59:00,
2013-01-23 04:04:00,6.8,0.8,30.37,SSE,167,0.0,0.0,76,0.00,CLR,,0.00,0.0,WeatherDisplay:10.37,2013-01-23 10:04:00,
2013-01-23 04:09:00,6.9,0.9,30.37,SSE,167,1.1,0.0,76,0.00,CLR,,0.00,0.0,WeatherDisplay:10.37,2013-01-23 10:09:00,
2013-01-23 04:14:00,7.0,1.0,30.37,SSE,168,0.0,0.0,76,0.00,CLR,,0.00,0.0,WeatherDisplay:10.37,2013-01-23 10:14:00,
2013-01-23 04:19:00,7.0,1.0,30.37,SSE,167,0.0,0.0,76,0.00,CLR,,0.00,0.0,WeatherDisplay:10.37,2013-01-23 10:19:00,
2013-01-23 04:24:00,7.1,1.1,30.36,SSE,167,0.0,0.0,76,0.00,CLR,,0.00,0.0,WeatherDisplay:10.37,2013-01-23 10:24:00,
2013-01-23 04:29:00,7.2,1.2,30.36,SSE,168,0.0,0.0,76,0.00,CLR,,0.00,0.0,WeatherDisplay:10.37,2013-01-23 10:29:00,
2013-01-23 04:34:00,7.3,1.3,30.36,South,177,0.0,0.0,76,0.00,CLR,,0.00,0.0,WeatherDisplay:10.37,2013-01-23 10:34:00,
2013-01-23 04:39:00,7.4,1.4,30.36,South,177,0.0,0.0,76,0.00,CLR,,0.00,0.0,WeatherDisplay:10.37,2013-01-23 10:39:00,
2013-01-23 04:44:00,7.4,1.1,30.35,South,177,0.0,0.0,75,0.00,CLR,,0.00,0.0,WeatherDisplay:10.37,2013-01-23 10:44:00,
2013-01-23 04:49:00,7.4,1.1,30.35,South,177,0.0,0.0,75,0.00,CLR,,0.00,0.0,WeatherDisplay:10.37,2013-01-23 10:49:00,
2013-01-23 04:54:00,7.5,1.2,30.35,South,177,0.0,0.0,75,0.00,CLR,,0.00,0.0,WeatherDisplay:10.37,2013-01-23 10:54:00,
2013-01-23 04:59:00,7.6,1.3,30.35,South,177,0.0,0.0,75,0.00,CLR,,0.00,0.0,WeatherDisplay:10.37,2013-01-23 10:59:00,
2013-01-23 05:04:00,7.7,1.4,30.35,South,177,0.0,0.0,75,0.00,CLR,,0.00,0.0,WeatherDisplay:10.37,2013-01-23 11:04:00,
2013-01-23 05:09:00,7.9,1.6,30.34,South,177,0.0,0.0,75,0.00,CLR,,0.00,0.0,WeatherDisplay:10.37,2013-01-23 11:09:00,
2013-01-23 05:15:00,8.0,3.9,30.35,SSW,201,2.3,2.3,83,0.00,CLR,,0.00,0.0,WeatherDisplay:10.37,2013-01-23 11:15:00,
2013-01-23 05:20:00,8.1,1.8,30.35,SSW,204,2.3,2.3,75,0.00,CLR,,0.00,0.0,WeatherDisplay:10.37,2013-01-23 11:20:00,
2013-01-23 05:25:00,8.3,2.0,30.35,SSW,204,1.0,1.0,75,0.00,CLR,,0.00,0.0,WeatherDisplay:10.37,2013-01-23 11:25:00,
2013-01-23 05:30:00,8.4,1.5,30.35,South,191,2.3,2.3,73,0.00,CLR,,0.00,0.0,WeatherDisplay:10.37,2013-01-23 11:30:00,
2013-01-23 05:35:00,8.5,1.3,30.35,South,190,2.3,2.3,72,0.00,CLR,,0.00,0.0,WeatherDisplay:10.37,2013-01-23 11:35:00,
2013-01-23 05:40:00,8.7,1.5,30.35,South,177,2.3,2.3,72,0.00,CLR,,0.00,0.0,WeatherDisplay:10.37,2013-01-23 11:40:00,
2013-01-23 05:45:00,8.8,1.3,30.35,SW,227,0.0,0.0,71,0.00,CLR,,0.00,0.0,WeatherDisplay:10.37,2013-01-23 11:45:00,
2013-01-23 05:50:00,8.8,1.3,30.35,SSW,209,2.3,2.3,71,0.00,CLR,,0.00,0.0,WeatherDisplay:10.37,2013-01-23 11:50:00,
2013-01-23 05:55:00,9.0,1.2,30.35,SSW,201,2.3,2.3,70,0.00,CLR,,0.00,0.0,WeatherDisplay:10.37,2013-01-23 11:55:00,
2013-01-23 06:00:00,9.1,1.3,30.35,SSW,197,2.3,2.3,70,0.00,CLR,,0.00,0.0,WeatherDisplay:10.37,2013-01-23 12:00:00,
2013-01-23 06:05:00,9.1,1.0,30.34,SSW,204,1.1,1.1,69,0.00,CLR,,0.00,0.0,WeatherDisplay:10.37,2013-01-23 12:05:00,
2013-01-23 06:10:00,9.2,0.8,30.34,SSW,202,0.0,0.0,68,0.00,CLR,,0.00,0.0,WeatherDisplay:10.37,2013-01-23 12:10:00,
2013-01-23 06:15:00,9.3,0.9,30.34,West,263,2.3,2.3,68,0.00,CLR,,0.00,0.0,WeatherDisplay:10.37,2013-01-23 12:15:00,
2013-01-23 06:20:00,9.3,0.9,30.34,SW,228,2.3,2.3,68,0.00,CLR,,0.00,0.0,WeatherDisplay:10.37,2013-01-23 12:20:00,
2013-01-23 06:25:00,9.3,0.5,30.34,SSW,210,2.3,2.3,67,0.00,CLR,,0.00,0.0,WeatherDisplay:10.37,2013-01-23 12:25:00,
2013-01-23 06:30:00,9.4,0.6,30.34,SE,127,3.5,3.5,67,0.00,CLR,,0.00,0.0,WeatherDisplay:10.37,2013-01-23 12:30:00,
2013-01-23 06:35:00,9.5,0.7,30.33,SSW,192,0.0,0.0,67,0.00,CLR,,0.00,0.0,WeatherDisplay:10.37,2013-01-23 12:35:00,
2013-01-23 06:40:00,9.5,0.7,30.33,SSW,205,3.5,3.5,67,0.00,CLR,,0.00,0.0,WeatherDisplay:10.37,2013-01-23 12:40:00,
2013-01-23 06:45:00,9.5,1.1,30.33,SSW,205,1.1,1.1,68,0.00,CLR,,0.00,0.0,WeatherDisplay:10.37,2013-01-23 12:45:00,
2013-01-23 06:50:00,9.5,0.7,30.33,SSE,167,3.5,3.5,67,0.00,CLR,,0.00,0.0,WeatherDisplay:10.37,2013-01-23 12:50:00,
2013-01-23 06:55:00,9.5,0.7,30.32,SSW,210,3.5,3.5,67,0.00,CLR,,0.00,0.0,WeatherDisplay:10.37,2013-01-23 12:55:00,
2013-01-23 07:00:00,9.5,1.1,30.32,SSW,194,2.3,0.0,68,0.00,CLR,,0.00,0.0,WeatherDisplay:10.37,2013-01-23 13:00:00,
2013-01-23 07:05:00,9.5,1.1,30.32,South,178,3.5,3.5,68,0.00,OVC,,0.00,0.0,WeatherDisplay:10.37,2013-01-23 13:05:00,
2013-01-23 07:10:00,9.6,1.5,30.32,WSW,248,3.5,3.5,69,0.00,OVC,,0.00,0.0,WeatherDisplay:10.37,2013-01-23 13:10:00,
2013-01-23 07:15:00,9.6,1.5,30.32,SSE,163,5.0,5.0,69,0.00,OVC,,0.00,0.0,WeatherDisplay:10.37,2013-01-23 13:15:00,
2013-01-23 07:20:00,9.6,1.5,30.32,WSW,244,2.3,2.3,69,0.00,OVC,,0.00,0.0,WeatherDisplay:10.37,2013-01-23 13:20:00,
2013-01-23 07:25:00,9.6,1.8,30.32,SW,223,1.1,0.0,70,0.00,OVC,,0.00,0.0,WeatherDisplay:10.37,2013-01-23 13:25:00,
2013-01-23 07:30:00,9.7,1.9,30.32,SSE,154,2.3,2.3,70,0.00,BKN,,0.00,5.0,WeatherDisplay:10.37,2013-01-23 13:30:00,
2013-01-23 07:35:00,9.7,1.9,30.32,SSW,210,1.1,1.1,70,0.00,BKN,,0.00,7.0,WeatherDisplay:10.37,2013-01-23 13:35:00,
2013-01-23 07:40:00,9.8,2.0,30.32,SSW,194,3.5,3.5,70,0.00,BKN,,0.00,9.0,WeatherDisplay:10.37,2013-01-23 13:40:00,
2013-01-23 07:45:00,9.9,2.1,30.32,SSW,211,0.0,0.0,70,0.00,BKN,,0.00,11.0,WeatherDisplay:10.37,2013-01-23 13:45:00,
2013-01-23 07:50:00,10.0,2.2,30.32,SW,228,2.3,2.3,70,0.00,BKN,,0.00,14.0,WeatherDisplay:10.37,2013-01-23 13:50:00,
2013-01-23 07:55:00,10.0,2.5,30.32,South,177,2.3,2.3,71,0.00,BKN,,0.00,18.0,WeatherDisplay:10.37,2013-01-23 13:55:00,
2013-01-23 08:00:00,10.0,2.5,30.32,SW,225,2.3,2.3,71,0.00,BKN,,0.00,21.0,WeatherDisplay:10.37,2013-01-23 14:00:00,
2013-01-23 08:05:00,10.2,3.0,30.32,SSW,192,1.1,0.0,72,0.00,BKN,,0.00,25.0,WeatherDisplay:10.37,2013-01-23 14:05:00,
2013-01-23 08:10:00,10.2,3.0,30.31,SW,233,1.1,1.1,72,0.00,BKN,,0.00,26.0,WeatherDisplay:10.37,2013-01-23 14:10:00,
2013-01-23 08:15:00,10.3,3.1,30.32,SW,233,0.0,0.0,72,0.00,BKN,,0.00,30.0,WeatherDisplay:10.37,2013-01-23 14:15:00,
2013-01-23 08:20:00,10.4,3.2,30.32,South,184,2.3,2.3,72,0.00,BKN,,0.00,33.0,WeatherDisplay:10.37,2013-01-23 14:20:00,
2013-01-23 08:25:00,10.4,3.2,30.31,SW,217,5.8,5.8,72,0.00,BKN,,0.00,37.0,WeatherDisplay:10.37,2013-01-23 14:25:00,
2013-01-23 08:30:00,10.4,3.2,30.31,SW,217,3.5,3.5,72,0.00,BKN,,0.00,40.0,WeatherDisplay:10.37,2013-01-23 14:30:00,
2013-01-23 08:35:00,10.4,3.5,30.31,SW,223,2.3,2.3,73,0.00,BKN,,0.00,44.0,WeatherDisplay:10.37,2013-01-23 14:35:00,
2013-01-23 08:40:00,10.6,3.6,30.31,SSW,211,1.1,1.1,73,0.00,BKN,,0.00,47.0,WeatherDisplay:10.37,2013-01-23 14:40:00,
2013-01-23 08:45:00,10.7,3.7,30.31,South,169,3.5,3.5,73,0.00,BKN,,0.00,49.0,WeatherDisplay:10.37,2013-01-23 14:45:00,
2013-01-23 08:50:00,10.7,3.7,30.31,WSW,237,3.5,3.5,73,0.00,BKN,,0.00,53.0,WeatherDisplay:10.37,2013-01-23 14:50:00,
2013-01-23 08:55:00,10.9,4.2,30.31,WSW,237,1.1,0.0,74,0.00,BKN,,0.00,56.0,WeatherDisplay:10.37,2013-01-23 14:55:00,
2013-01-23 09:00:00,11.1,4.7,30.31,South,177,3.5,3.5,75,0.00,BKN,,0.00,60.0,WeatherDisplay:10.37,2013-01-23 15:00:00,
2013-01-23 09:05:00,11.3,4.9,30.31,SSE,168,3.5,3.5,75,0.00,BKN,,0.00,63.0,WeatherDisplay:10.37,2013-01-23 15:05:00,
2013-01-23 09:10:00,11.3,4.9,30.31,SSW,195,3.5,3.5,75,0.00,BKN,,0.00,69.0,WeatherDisplay:10.37,2013-01-23 15:10:00,
2013-01-23 09:15:00,11.3,4.9,30.31,SSW,204,3.5,3.5,75,0.00,BKN,,0.00,69.0,WeatherDisplay:10.37,2013-01-23 15:15:00,
2013-01-23 09:20:00,11.4,5.0,30.31,South,171,4.6,4.6,75,0.00,BKN,,0.00,72.0,WeatherDisplay:10.37,2013-01-23 15:20:00,
2013-01-23 09:25:00,11.6,5.5,30.31,SW,216,4.6,4.6,76,0.00,BKN,,0.00,76.0,WeatherDisplay:10.37,2013-01-23 15:25:00,
2013-01-23 09:30:00,11.6,5.5,30.31,SSW,193,3.5,3.5,76,0.00,BKN,,0.00,77.0,WeatherDisplay:10.37,2013-01-23 15:30:00,
2013-01-23 09:35:00,11.6,5.5,30.31,SSW,208,4.6,4.6,76,0.00,BKN,,0.00,84.0,WeatherDisplay:10.37,2013-01-23 15:35:00,
2013-01-23 09:40:00,11.7,5.9,30.31,SSW,204,3.5,3.5,77,0.00,BKN,,0.00,90.0,WeatherDisplay:10.37,2013-01-23 15:40:00,
2013-01-23 09:45:00,11.9,6.1,30.31,SSW,206,4.6,4.6,77,0.00,BKN,,0.00,98.0,WeatherDisplay:10.37,2013-01-23 15:45:00,
2013-01-23 09:50:00,12.0,6.2,30.31,South,181,3.5,3.5,77,0.00,BKN,,0.00,104.0,WeatherDisplay:10.37,2013-01-23 15:50:00,
2013-01-23 09:55:00,12.2,6.4,30.31,South,186,4.6,4.6,77,0.00,BKN,,0.00,107.0,WeatherDisplay:10.37,2013-01-23 15:55:00,
2013-01-23 10:00:00,12.4,6.6,30.30,WSW,239,2.3,2.3,77,0.00,BKN,,0.00,114.0,WeatherDisplay:10.37,2013-01-23 16:00:00,
2013-01-23 10:05:00,12.6,6.8,30.30,SSW,204,3.5,3.5,77,0.00,BKN,,0.00,118.0,WeatherDisplay:10.37,2013-01-23 16:05:00,
2013-01-23 10:10:00,12.9,7.3,30.30,SW,232,1.1,1.1,78,0.00,BKN,,0.00,118.0,WeatherDisplay:10.37,2013-01-23 16:10:00,
2013-01-23 10:15:00,13.1,7.5,30.30,WSW,252,1.1,1.1,78,0.00,BKN,,0.00,123.0,WeatherDisplay:10.37,2013-01-23 16:15:00,
2013-01-23 10:20:00,13.1,7.5,30.30,WSW,256,3.5,3.5,78,0.00,BKN,,0.00,125.0,WeatherDisplay:10.37,2013-01-23 16:20:00,
2013-01-23 10:25:00,13.1,7.5,30.30,SSW,192,4.6,4.6,78,0.00,BKN,,0.00,130.0,WeatherDisplay:10.37,2013-01-23 16:25:00,
2013-01-23 10:30:00,13.2,7.6,30.30,South,169,2.3,2.3,78,0.00,BKN,,0.00,128.0,WeatherDisplay:10.37,2013-01-23 16:30:00,
2013-01-23 10:35:00,13.3,7.7,30.30,South,171,3.5,3.5,78,0.00,BKN,,0.00,128.0,WeatherDisplay:10.37,2013-01-23 16:35:00,
2013-01-23 10:40:00,13.5,8.2,30.30,South,184,3.5,3.5,79,0.00,BKN,,0.00,139.0,WeatherDisplay:10.37,2013-01-23 16:40:00,
2013-01-23 10:45:00,13.6,8.3,30.30,SW,226,3.5,3.5,79,0.00,BKN,,0.00,141.0,WeatherDisplay:10.37,2013-01-23 16:45:00,
2013-01-23 10:50:00,13.6,8.3,30.29,SW,214,2.3,2.3,79,0.00,BKN,,0.00,139.0,WeatherDisplay:10.37,2013-01-23 16:50:00,
2013-01-23 10:55:00,13.7,8.4,30.29,SW,220,3.5,3.5,79,0.00,BKN,,0.00,144.0,WeatherDisplay:10.37,2013-01-23 16:55:00,
2013-01-23 11:00:00,13.8,8.5,30.29,SSW,200,3.5,3.5,79,0.00,BKN,,0.00,148.0,WeatherDisplay:10.37,2013-01-23 17:00:00,
2013-01-23 11:05:00,14.0,9.0,30.28,WSW,253,5.0,5.0,80,0.00,BKN,,0.00,160.0,WeatherDisplay:10.37,2013-01-23 17:05:00,
2013-01-23 11:10:00,13.9,8.6,30.27,South,184,5.8,5.8,79,0.00,BKN,,0.00,165.0,WeatherDisplay:10.37,2013-01-23 17:10:00,
2013-01-23 11:15:00,14.1,9.1,30.27,SSW,206,6.0,6.0,80,0.00,BKN,,0.00,167.0,WeatherDisplay:10.37,2013-01-23 17:15:00,
2013-01-23 11:20:00,14.2,9.2,30.27,SSW,196,3.5,3.5,80,0.00,BKN,,0.00,174.0,WeatherDisplay:10.37,2013-01-23 17:20:00,
2013-01-23 11:25:00,14.2,9.2,30.27,SW,216,3.5,3.5,80,0.00,BKN,,0.00,199.0,WeatherDisplay:10.37,2013-01-23 17:25:00,
2013-01-23 11:30:00,14.5,9.5,30.26,SSW,197,9.2,9.2,80,0.00,BKN,,0.00,202.0,WeatherDisplay:10.37,2013-01-23 17:30:00,
2013-01-23 11:35:00,14.6,9.3,30.25,South,181,3.5,3.5,79,0.00,BKN,,0.00,179.0,WeatherDisplay:10.37,2013-01-23 17:35:00,
2013-01-23 11:40:00,14.8,9.5,30.25,South,173,3.5,3.5,79,0.00,BKN,,0.00,183.0,WeatherDisplay:10.37,2013-01-23 17:40:00,
2013-01-23 11:45:00,14.9,9.6,30.25,SW,216,6.9,6.9,79,0.00,BKN,,0.00,179.0,WeatherDisplay:10.37,2013-01-23 17:45:00,
2013-01-23 11:50:00,15.0,9.7,30.25,SSW,197,4.6,4.6,79,0.00,BKN,,0.00,209.0,WeatherDisplay:10.37,2013-01-23 17:50:00,
2013-01-23 11:55:00,15.0,9.4,30.24,South,185,3.5,3.5,78,0.00,BKN,,0.00,207.0,WeatherDisplay:10.37,2013-01-23 17:55:00,
2013-01-23 12:00:00,15.1,9.5,30.23,WSW,244,9.2,9.2,78,0.00,BKN,,0.00,209.0,WeatherDisplay:10.37,2013-01-23 18:00:00,
2013-01-23 12:05:00,15.3,9.7,30.23,South,182,4.6,4.6,78,0.00,BKN,,0.00,209.0,WeatherDisplay:10.37,2013-01-23 18:05:00,
2013-01-23 12:10:00,15.4,9.5,30.23,SW,231,4.6,4.6,77,0.00,BKN,,0.00,186.0,WeatherDisplay:10.37,2013-01-23 18:10:00,
2013-01-23 12:15:00,15.6,9.4,30.22,South,173,3.5,3.5,76,0.00,BKN,,0.00,190.0,WeatherDisplay:10.37,2013-01-23 18:15:00,
2013-01-23 12:20:00,15.8,9.6,30.22,SSW,208,9.0,9.0,76,0.00,BKN,,0.00,178.0,WeatherDisplay:10.37,2013-01-23 18:20:00,
2013-01-23 12:25:00,15.8,9.6,30.21,South,186,5.8,5.8,76,0.00,BKN,,0.00,204.0,WeatherDisplay:10.37,2013-01-23 18:25:00,
2013-01-23 12:30:00,15.9,9.7,30.21,SSW,197,9.2,9.2,76,0.00,BKN,,0.00,169.0,WeatherDisplay:10.37,2013-01-23 18:30:00,
2013-01-23 12:35:00,15.8,9.6,30.21,SSW,196,5.8,5.8,76,0.00,BKN,,0.00,167.0,WeatherDisplay:10.37,2013-01-23 18:35:00,
2013-01-23 12:40:00,15.7,9.5,30.20,South,183,6.9,6.9,76,0.00,BKN,,0.00,151.0,WeatherDisplay:10.37,2013-01-23 18:40:00,
2013-01-23 12:45:00,15.8,9.9,30.20,SSW,196,4.6,4.6,77,0.00,BKN,,0.00,172.0,WeatherDisplay:10.37,2013-01-23 18:45:00,
2013-01-23 12:50:00,16.0,10.1,30.20,SSW,211,3.5,3.5,77,0.00,BKN,,0.00,142.0,WeatherDisplay:10.37,2013-01-23 18:50:00,
2013-01-23 12:55:00,16.2,10.3,30.19,SE,139,7.0,7.0,77,0.00,BKN,,0.00,171.0,WeatherDisplay:10.37,2013-01-23 18:55:00,
2013-01-23 13:00:00,16.2,10.3,30.19,SSE,160,5.8,5.8,77,0.00,BKN,,0.00,162.0,WeatherDisplay:10.37,2013-01-23 19:00:00,
2013-01-23 13:05:00,16.4,10.4,30.19,SSE,148,5.8,5.8,77,0.00,BKN,,0.00,165.0,WeatherDisplay:10.37,2013-01-23 19:05:00,
2013-01-23 13:10:00,16.6,10.6,30.18,South,171,6.9,6.9,77,0.00,BKN,,0.00,165.0,WeatherDisplay:10.37,2013-01-23 19:10:00,
2013-01-23 13:15:00,16.4,10.2,30.18,SW,234,3.5,3.5,76,0.00,BKN,,0.00,167.0,WeatherDisplay:10.37,2013-01-23 19:15:00,
2013-01-23 13:20:00,16.4,10.4,30.18,South,179,9.2,9.2,77,0.00,BKN,,0.00,171.0,WeatherDisplay:10.37,2013-01-23 19:20:00,
2013-01-23 13:25:00,16.4,10.4,30.18,SSW,200,6.9,6.9,77,0.00,BKN,,0.00,181.0,WeatherDisplay:10.37,2013-01-23 19:25:00,
2013-01-23 13:30:00,16.6,10.6,30.18,SSW,208,3.5,3.5,77,0.00,BKN,,0.00,158.0,WeatherDisplay:10.37,2013-01-23 19:30:00,
2013-01-23 13:35:00,16.7,10.7,30.18,SSW,202,3.5,3.5,77,0.00,BKN,,0.00,153.0,WeatherDisplay:10.37,2013-01-23 19:35:00,
2013-01-23 13:40:00,16.9,10.9,30.17,SSW,200,4.6,4.6,77,0.00,BKN,,0.00,179.0,WeatherDisplay:10.37,2013-01-23 19:40:00,
2013-01-23 13:45:00,17.1,11.1,30.17,SW,235,3.5,3.5,77,0.00,SCT,,0.00,274.0,WeatherDisplay:10.37,2013-01-23 19:45:00,
2013-01-23 13:50:00,17.4,11.4,30.17,SSW,209,5.8,5.8,77,0.00,SCT,,0.00,190.0,WeatherDisplay:10.37,2013-01-23 19:50:00,
2013-01-23 13:55:00,17.4,11.7,30.16,SSE,168,11.5,11.5,78,0.00,SCT,,0.00,90.0,WeatherDisplay:10.37,2013-01-23 19:55:00,
2013-01-23 14:00:00,17.3,11.3,30.16,SSW,208,3.5,3.5,77,0.00,BKN,,0.00,357.0,WeatherDisplay:10.37,2013-01-23 20:00:00,
2013-01-23 14:05:00,17.8,12.1,30.17,SW,221,3.5,3.5,78,0.00,SCT,,0.00,76.0,WeatherDisplay:10.37,2013-01-23 20:05:00,
2013-01-23 14:10:00,17.4,11.4,30.17,South,183,5.8,5.8,77,0.00,SCT,,0.00,91.0,WeatherDisplay:10.37,2013-01-23 20:10:00,
2013-01-23 14:15:00,17.1,11.1,30.17,WNW,294,10.4,10.4,77,0.00,BKN,,0.00,65.0,WeatherDisplay:10.37,2013-01-23 20:15:00,
2013-01-23 14:20:00,17.1,11.4,30.16,SSW,201,5.0,5.0,78,0.00,BKN,,0.00,104.0,WeatherDisplay:10.37,2013-01-23 20:20:00,
2013-01-23 14:25:00,17.1,11.4,30.16,SW,214,15.0,15.0,78,0.00,BKN,,0.00,84.0,WeatherDisplay:10.37,2013-01-23 20:25:00,
2013-01-23 14:30:00,17.1,11.4,30.16,SSW,204,1.0,7.0,78,0.00,BKN,,0.00,84.0,WeatherDisplay:10.37,2013-01-23 20:30:00,
2013-01-23 14:36:00,17.0,11.6,30.16,SSW,193,13.0,13.0,79,0.00,BKN,,0.00,79.0,WeatherDisplay:10.37,2013-01-23 20:36:00,
2013-01-23 14:41:00,16.8,11.7,30.16,SSW,198,3.5,3.5,80,0.00,BKN,,0.00,93.0,WeatherDisplay:10.37,2013-01-23 20:41:00,
2013-01-23 14:46:00,17.0,12.2,30.16,WSW,237,4.0,4.0,81,0.00,BKN,,0.00,88.0,WeatherDisplay:10.37,2013-01-23 20:46:00,
2013-01-23 14:51:00,16.9,12.1,30.16,SSW,213,5.0,5.0,81,0.00,BKN,,0.00,74.0,WeatherDisplay:10.37,2013-01-23 20:51:00,
2013-01-23 14:56:00,16.8,12.3,30.16,SW,216,5.8,5.8,82,0.00,BKN,,0.00,81.0,WeatherDisplay:10.37,2013-01-23 20:56:00,
2013-01-23 15:01:00,16.9,12.4,30.16,SW,217,3.5,3.5,82,0.00,BKN,,0.00,79.0,WeatherDisplay:10.37,2013-01-23 21:01:00,
2013-01-23 15:06:00,17.0,12.5,30.17,SSW,212,4.6,4.6,82,0.00,BKN,,0.00,62.0,WeatherDisplay:10.37,2013-01-23 21:06:00,
2013-01-23 15:11:00,17.1,12.6,30.17,SW,231,5.8,5.8,82,0.00,BKN,,0.00,49.0,WeatherDisplay:10.37,2013-01-23 21:11:00,
2013-01-23 15:16:00,17.1,12.6,30.16,SW,225,2.3,2.3,82,0.00,BKN,,0.00,54.0,WeatherDisplay:10.37,2013-01-23 21:16:00,
2013-01-23 15:21:00,17.2,12.6,30.17,South,179,5.0,5.0,82,0.00,BKN,,0.00,42.0,WeatherDisplay:10.37,2013-01-23 21:21:00,
2013-01-23 15:26:00,17.1,12.6,30.17,SW,220,5.8,5.8,82,0.00,BKN,,0.00,42.0,WeatherDisplay:10.37,2013-01-23 21:26:00,
2013-01-23 15:31:00,17.2,12.6,30.17,SSW,204,3.5,3.5,82,0.00,BKN,,0.00,40.0,WeatherDisplay:10.37,2013-01-23 21:31:00,
2013-01-23 15:36:00,17.2,12.4,30.17,SW,236,3.5,3.5,81,0.00,BKN,,0.00,33.0,WeatherDisplay:10.37,2013-01-23 21:36:00,
2013-01-23 15:41:00,17.2,12.4,30.17,SSW,199,3.5,3.5,81,0.00,BKN,,0.00,26.0,WeatherDisplay:10.37,2013-01-23 21:41:00,
2013-01-23 15:46:00,17.1,12.3,30.18,SW,221,3.5,3.5,81,0.00,BKN,,0.00,23.0,WeatherDisplay:10.37,2013-01-23 21:46:00,
2013-01-23 15:51:00,17.0,12.5,30.18,SW,230,3.5,3.5,82,0.00,BKN,,0.00,25.0,WeatherDisplay:10.37,2013-01-23 21:51:00,
2013-01-23 15:56:00,16.8,12.5,30.18,WSW,237,9.2,9.2,83,0.00,BKN,,0.00,28.0,WeatherDisplay:10.37,2013-01-23 21:56:00,
2013-01-23 16:01:00,16.7,12.4,30.18,West,262,3.5,3.5,83,0.00,BKN,,0.00,28.0,WeatherDisplay:10.37,2013-01-23 22:01:00,
2013-01-23 16:06:00,16.8,12.8,30.18,SW,228,3.5,3.5,84,0.00,BKN,,0.00,25.0,WeatherDisplay:10.37,2013-01-23 22:06:00,
2013-01-23 16:11:00,16.9,13.2,30.18,SW,232,5.0,5.0,85,0.00,BKN,,0.00,21.0,WeatherDisplay:10.37,2013-01-23 22:11:00,
2013-01-23 16:16:00,16.8,12.8,30.18,SW,217,2.3,2.3,84,0.00,BKN,,0.00,21.0,WeatherDisplay:10.37,2013-01-23 22:16:00,
2013-01-23 16:21:00,16.7,12.7,30.18,SSW,210,4.6,4.6,84,0.00,BKN,,0.00,18.0,WeatherDisplay:10.37,2013-01-23 22:21:00,
2013-01-23 16:26:00,16.7,12.7,30.18,SW,221,3.5,3.5,84,0.00,BKN,,0.00,16.0,WeatherDisplay:10.37,2013-01-23 22:26:00,
2013-01-23 16:31:00,16.6,12.6,30.18,WSW,253,10.0,10.0,84,0.00,BKN,,0.00,14.0,WeatherDisplay:10.37,2013-01-23 22:31:00,
2013-01-23 16:36:00,16.6,12.6,30.18,SSW,209,4.6,4.6,84,0.00,BKN,,0.00,9.0,WeatherDisplay:10.37,2013-01-23 22:36:00,
2013-01-23 16:41:00,16.7,12.7,30.19,SSW,204,4.0,4.0,84,0.00,BKN,,0.00,5.0,WeatherDisplay:10.37,2013-01-23 22:41:00,
2013-01-23 16:46:00,16.7,12.7,30.18,WSW,246,3.5,3.5,84,0.00,OVC,,0.00,0.0,WeatherDisplay:10.37,2013-01-23 22:46:00,
2013-01-23 16:51:00,16.7,12.7,30.18,SSW,209,3.5,3.5,84,0.00,OVC,,0.00,0.0,WeatherDisplay:10.37,2013-01-23 22:51:00,
2013-01-23 16:56:00,16.7,12.7,30.19,SW,223,2.0,0.0,84,0.00,OVC,,0.00,0.0,WeatherDisplay:10.37,2013-01-23 22:56:00,
2013-01-23 17:01:00,16.7,12.7,30.19,South,185,4.6,4.6,84,0.00,CLR,,0.00,0.0,WeatherDisplay:10.37,2013-01-23 23:01:00,
2013-01-23 17:06:00,16.7,12.7,30.19,SW,218,2.3,0.0,84,0.00,CLR,,0.00,0.0,WeatherDisplay:10.37,2013-01-23 23:06:00,
2013-01-23 17:11:00,16.7,13.0,30.18,SSW,206,2.3,2.3,85,0.00,CLR,,0.00,0.0,WeatherDisplay:10.37,2013-01-23 23:11:00,
2013-01-23 17:16:00,16.7,13.0,30.19,SSW,213,2.3,2.3,85,0.00,CLR,,0.00,0.0,WeatherDisplay:10.37,2013-01-23 23:16:00,
2013-01-23 17:21:00,16.7,13.0,30.19,SSW,213,0.0,0.0,85,0.00,CLR,,0.00,0.0,WeatherDisplay:10.37,2013-01-23 23:21:00,
2013-01-23 17:26:00,16.7,13.0,30.19,SW,222,0.0,0.0,85,0.00,CLR,,0.00,0.0,WeatherDisplay:10.37,2013-01-23 23:26:00,
2013-01-23 17:31:00,16.7,13.0,30.19,SSW,212,3.0,3.0,85,0.00,CLR,,0.00,0.0,WeatherDisplay:10.37,2013-01-23 23:31:00,
2013-01-23 17:36:00,16.6,12.9,30.20,SSW,204,0.0,0.4,85,0.00,CLR,,0.00,0.0,WeatherDisplay:10.37,2013-01-23 23:36:00,
2013-01-23 17:41:00,16.6,13.1,30.20,SW,236,3.5,3.5,86,0.00,CLR,,0.00,0.0,WeatherDisplay:10.37,2013-01-23 23:41:00,
2013-01-23 17:46:00,16.4,12.7,30.20,SW,236,0.0,0.0,85,0.00,CLR,,0.00,0.0,WeatherDisplay:10.37,2013-01-23 23:46:00,
2013-01-23 17:51:00,16.2,12.5,30.20,SW,236,0.0,0.0,85,0.00,CLR,,0.00,0.0,WeatherDisplay:10.37,2013-01-23 23:51:00,
2013-01-23 17:56:00,16.1,12.7,30.21,SW,236,1.1,0.0,86,0.00,CLR,,0.00,0.0,WeatherDisplay:10.37,2013-01-23 23:56:00,
2013-01-23 18:01:00,16.2,12.7,30.21,SW,217,0.0,0.0,86,0.00,CLR,,0.00,0.0,WeatherDisplay:10.37,2013-01-24 00:01:00,
2013-01-23 18:06:00,16.3,12.8,30.21,SW,223,0.0,0.0,86,0.00,CLR,,0.00,0.0,WeatherDisplay:10.37,2013-01-24 00:06:00,
2013-01-23 18:11:00,16.5,13.0,30.21,NNW,327,2.3,0.0,86,0.00,CLR,,0.00,0.0,WeatherDisplay:10.37,2013-01-24 00:11:00,
2013-01-23 18:16:00,16.6,13.1,30.22,WNW,287,0.0,0.0,86,0.00,CLR,,0.00,0.0,WeatherDisplay:10.37,2013-01-24 00:16:00,
2013-01-23 18:21:00,16.6,13.1,30.22,NNW,347,3.5,3.5,86,0.00,CLR,,0.00,0.0,WeatherDisplay:10.37,2013-01-24 00:21:00,
2013-01-23 18:26:00,16.5,13.0,30.23,West,268,3.5,3.5,86,0.00,CLR,,0.00,0.0,WeatherDisplay:10.37,2013-01-24 00:26:00,
2013-01-23 18:31:00,16.2,12.7,30.23,NW,305,3.5,3.5,86,0.00,CLR,,0.00,0.0,WeatherDisplay:10.37,2013-01-24 00:31:00,
2013-01-23 18:36:00,15.8,12.4,30.23,WSW,256,3.5,3.5,86,0.00,CLR,,0.00,0.0,WeatherDisplay:10.37,2013-01-24 00:36:00,
2013-01-23 18:41:00,15.4,12.0,30.24,WNW,293,2.3,2.3,86,0.00,CLR,,0.00,0.0,WeatherDisplay:10.37,2013-01-24 00:41:00,
2013-01-23 18:46:00,15.1,11.4,30.24,WSW,237,2.0,2.0,85,0.00,CLR,,0.00,0.0,WeatherDisplay:10.37,2013-01-24 00:46:00,
2013-01-23 18:51:00,14.9,11.2,30.25,WNW,289,3.5,3.5,85,0.00,CLR,,0.00,0.0,WeatherDisplay:10.37,2013-01-24 00:51:00,
2013-01-23 18:56:00,14.8,10.8,30.25,WNW,294,1.1,1.1,84,0.00,CLR,,0.00,0.0,WeatherDisplay:10.37,2013-01-24 00:56:00,
2013-01-23 19:01:00,14.7,10.5,30.26,WSW,256,3.5,3.5,83,0.00,CLR,,0.00,0.0,WeatherDisplay:10.37,2013-01-24 01:01:00,
2013-01-23 19:06:00,14.6,10.1,30.26,WNW,284,3.5,3.5,82,0.00,CLR,,0.00,0.0,WeatherDisplay:10.37,2013-01-24 01:06:00,
2013-01-23 19:11:00,14.6,10.1,30.27,West,260,3.0,3.0,82,0.00,CLR,,0.00,0.0,WeatherDisplay:10.37,2013-01-24 01:11:00,
2013-01-23 19:16:00,14.6,9.8,30.27,WNW,303,3.5,3.5,81,0.00,CLR,,0.00,0.0,WeatherDisplay:10.37,2013-01-24 01:16:00,
2013-01-23 19:21:00,14.5,9.7,30.27,North,2,3.5,3.5,81,0.00,CLR,,0.00,0.0,WeatherDisplay:10.37,2013-01-24 01:21:00,
2013-01-23 19:26:00,14.4,9.6,30.28,WNW,291,2.3,2.3,81,0.00,CLR,,0.00,0.0,WeatherDisplay:10.37,2013-01-24 01:26:00,
2013-01-23 19:31:00,14.4,9.6,30.29,West,271,1.1,0.0,81,0.00,CLR,,0.00,0.0,WeatherDisplay:10.37,2013-01-24 01:31:00,
2013-01-23 19:36:00,14.3,9.8,30.29,West,275,4.6,4.6,82,0.00,CLR,,0.00,0.0,WeatherDisplay:10.37,2013-01-24 01:36:00,
2013-01-23 19:41:00,14.2,10.0,30.30,WSW,256,3.5,3.5,83,0.00,CLR,,0.00,0.0,WeatherDisplay:10.37,2013-01-24 01:41:00,
2013-01-23 19:46:00,14.0,9.8,30.31,WSW,250,2.3,2.3,83,0.00,CLR,,0.00,0.0,WeatherDisplay:10.37,2013-01-24 01:46:00,
2013-01-23 19:51:00,13.6,9.4,30.31,WSW,258,6.9,6.9,83,0.00,CLR,,0.00,0.0,WeatherDisplay:10.37,2013-01-24 01:51:00,
2013-01-23 19:56:00,13.1,8.6,30.31,WNW,295,5.8,5.8,82,0.00,CLR,,0.00,0.0,WeatherDisplay:10.37,2013-01-24 01:56:00,
2013-01-23 20:01:00,12.8,8.1,30.32,WSW,240,0.0,0.0,81,0.00,CLR,,0.00,0.0,WeatherDisplay:10.37,2013-01-24 02:01:00,
2013-01-23 20:06:00,12.6,7.9,30.32,West,274,3.5,3.5,81,0.00,CLR,,0.00,0.0,WeatherDisplay:10.37,2013-01-24 02:06:00,
2013-01-23 20:11:00,12.4,7.4,30.32,WNW,290,4.0,4.0,80,0.00,CLR,,0.00,0.0,WeatherDisplay:10.37,2013-01-24 02:11:00,
2013-01-23 20:16:00,12.2,6.9,30.33,WNW,284,4.6,4.6,79,0.00,CLR,,0.00,0.0,WeatherDisplay:10.37,2013-01-24 02:16:00,
2013-01-23 20:21:00,12.0,6.7,30.33,WNW,290,3.5,3.5,79,0.00,CLR,,0.00,0.0,WeatherDisplay:10.37,2013-01-24 02:21:00,
2013-01-23 20:26:00,11.9,6.4,30.33,SW,227,2.3,2.3,78,0.00,CLR,,0.00,0.0,WeatherDisplay:10.37,2013-01-24 02:26:00,
2013-01-23 20:31:00,11.7,6.4,30.33,WNW,301,6.0,6.0,79,0.00,CLR,,0.00,0.0,WeatherDisplay:10.37,2013-01-24 02:31:00,
2013-01-23 20:36:00,11.4,5.9,30.33,SSW,201,5.8,5.8,78,0.00,CLR,,0.00,0.0,WeatherDisplay:10.37,2013-01-24 02:36:00,
2013-01-23 20:41:00,11.1,5.3,30.34,WSW,246,9.2,9.2,77,0.00,CLR,,0.00,0.0,WeatherDisplay:10.37,2013-01-24 02:41:00,
2013-01-23 20:46:00,10.9,4.8,30.35,West,268,5.8,5.8,76,0.00,CLR,,0.00,0.0,WeatherDisplay:10.37,2013-01-24 02:46:00,
2013-01-23 20:51:00,10.8,4.4,30.35,WNW,301,6.9,6.9,75,0.00,CLR,,0.00,0.0,WeatherDisplay:10.37,2013-01-24 02:51:00,
2013-01-23 20:56:00,10.6,4.2,30.35,WNW,287,3.5,3.5,75,0.00,CLR,,0.00,0.0,WeatherDisplay:10.37,2013-01-24 02:56:00,
2013-01-23 21:01:00,10.4,3.8,30.35,WNW,285,2.0,2.0,74,0.00,CLR,,0.00,0.0,WeatherDisplay:10.37,2013-01-24 03:01:00,
2013-01-23 21:06:00,10.2,3.3,30.36,NW,310,2.3,2.3,73,0.00,CLR,,0.00,0.0,WeatherDisplay:10.37,2013-01-24 03:06:00,
2013-01-23 21:11:00,10.0,2.5,30.37,NW,321,2.3,2.3,71,0.00,CLR,,0.00,0.0,WeatherDisplay:10.37,2013-01-24 03:11:00,
2013-01-23 21:16:00,9.9,1.8,30.37,WNW,291,4.6,4.6,69,0.00,CLR,,0.00,0.0,WeatherDisplay:10.37,2013-01-24 03:16:00,
2013-01-23 21:21:00,9.6,0.8,30.38,West,281,3.5,3.5,67,0.00,CLR,,0.00,0.0,WeatherDisplay:10.37,2013-01-24 03:21:00,
2013-01-23 21:26:00,9.5,0.4,30.38,WNW,301,4.0,4.0,66,0.00,CLR,,0.00,0.0,WeatherDisplay:10.37,2013-01-24 03:26:00,
2013-01-23 21:31:00,9.3,0.2,30.39,NW,325,4.6,4.6,66,0.00,CLR,,0.00,0.0,WeatherDisplay:10.37,2013-01-24 03:31:00,
2013-01-23 21:36:00,9.2,-0.2,30.39,WNW,286,2.3,2.3,65,0.00,CLR,,0.00,0.0,WeatherDisplay:10.37,2013-01-24 03:36:00,
2013-01-23 21:41:00,9.0,-0.7,30.39,WNW,288,3.5,3.5,64,0.00,CLR,,0.00,0.0,WeatherDisplay:10.37,2013-01-24 03:41:00,
2013-01-23 21:46:00,9.0,-0.7,30.40,WSW,239,6.9,6.9,64,0.00,CLR,,0.00,0.0,WeatherDisplay:10.37,2013-01-24 03:46:00,
2013-01-23 21:51:00,8.9,-0.8,30.41,NW,314,3.5,3.5,64,0.00,CLR,,0.00,0.0,WeatherDisplay:10.37,2013-01-24 03:51:00,
2013-01-23 21:56:00,8.8,-0.6,30.40,WSW,252,0.0,0.0,65,0.00,CLR,,0.00,0.0,WeatherDisplay:10.37,2013-01-24 03:56:00,
2013-01-23 22:01:00,8.6,-0.4,30.40,WNW,287,2.3,2.3,66,0.00,CLR,,0.00,0.0,WeatherDisplay:10.37,2013-01-24 04:01:00,
2013-01-23 22:06:00,8.5,-0.9,30.41,WNW,300,1.1,0.0,65,0.00,CLR,,0.00,0.0,WeatherDisplay:10.37,2013-01-24 04:06:00,
2013-01-23 22:11:00,8.4,-1.0,30.42,WNW,293,4.0,4.0,65,0.00,CLR,,0.00,0.0,WeatherDisplay:10.37,2013-01-24 04:11:00,
2013-01-23 22:16:00,8.3,-1.1,30.42,NW,323,2.0,2.0,65,0.00,CLR,,0.00,0.0,WeatherDisplay:10.37,2013-01-24 04:16:00,
2013-01-23 22:21:00,8.2,-0.8,30.42,SSE,152,0.0,0.0,66,0.00,CLR,,0.00,0.0,WeatherDisplay:10.37,2013-01-24 04:21:00,
2013-01-23 22:26:00,8.1,-0.9,30.42,West,279,3.5,3.5,66,0.00,CLR,,0.00,0.0,WeatherDisplay:10.37,2013-01-24 04:26:00,
2013-01-23 22:31:00,8.0,-1.0,30.43,WNW,294,3.5,3.5,66,0.00,CLR,,0.00,0.0,WeatherDisplay:10.37,2013-01-24 04:31:00,
2013-01-23 22:36:00,7.9,-1.1,30.43,West,275,2.3,0.0,66,0.00,CLR,,0.00,0.0,WeatherDisplay:10.37,2013-01-24 04:36:00,
2013-01-23 22:41:00,7.7,-1.0,30.43,WSW,250,1.1,0.0,67,0.00,CLR,,0.00,0.0,WeatherDisplay:10.37,2013-01-24 04:41:00,
2013-01-23 22:46:00,7.5,-1.2,30.43,West,271,0.0,0.0,67,0.00,CLR,,0.00,0.0,WeatherDisplay:10.37,2013-01-24 04:46:00,
2013-01-23 22:51:00,7.4,-1.3,30.43,West,281,0.0,0.1,67,0.00,CLR,,0.00,0.0,WeatherDisplay:10.37,2013-01-24 04:51:00,
2013-01-23 22:56:00,7.4,-1.0,30.44,West,264,2.3,2.3,68,0.00,CLR,,0.00,0.0,WeatherDisplay:10.37,2013-01-24 04:56:00,
2013-01-23 23:00:00,7.3,-1.1,30.44,West,264,0.0,0.0,68,0.00,CLR,,0.00,0.0,WeatherDisplay:10.37,2013-01-24 05:00:00,
2013-01-23 23:01:00,7.3,-1.1,30.44,West,264,0.0,0.0,68,0.00,CLR,,0.00,0.0,WeatherDisplay:10.37,2013-01-24 05:01:00,
2013-01-23 23:03:00,7.2,-1.2,30.44,WSW,256,0.0,0.0,68,0.00,CLR,,0.00,0.0,WeatherDisplay:10.37,2013-01-24 05:03:00,
2013-01-23 23:08:00,7.1,-1.2,30.45,WNW,282,3.5,3.5,68,0.00,CLR,,0.00,0.0,WeatherDisplay:10.37,2013-01-24 05:08:00,
2013-01-23 23:13:00,7.1,-1.2,30.45,WSW,239,4.6,4.6,68,0.00,CLR,,0.00,0.0,WeatherDisplay:10.37,2013-01-24 05:13:00,
2013-01-23 23:18:00,7.0,-1.3,30.46,WNW,296,2.3,2.3,68,0.00,CLR,,0.00,0.0,WeatherDisplay:10.37,2013-01-24 05:18:00,
2013-01-23 23:23:00,6.9,-1.4,30.47,West,274,3.5,3.5,68,0.00,CLR,,0.00,0.0,WeatherDisplay:10.37,2013-01-24 05:23:00,
2013-01-23 23:28:00,6.9,-1.4,30.47,WNW,285,2.3,2.3,68,0.00,CLR,,0.00,0.0,WeatherDisplay:10.37,2013-01-24 05:28:00,
2013-01-23 23:33:00,6.8,-1.5,30.47,WNW,282,3.5,3.5,68,0.00,CLR,,0.00,0.0,WeatherDisplay:10.37,2013-01-24 05:33:00,
2013-01-23 23:38:00,6.6,-1.7,30.47,WNW,287,4.6,4.6,68,0.00,CLR,,0.00,0.0,WeatherDisplay:10.37,2013-01-24 05:38:00,
2013-01-23 23:43:00,6.5,-1.5,30.48,WNW,285,2.3,2.3,69,0.00,CLR,,0.00,0.0,WeatherDisplay:10.37,2013-01-24 05:43:00,
2013-01-23 23:48:00,6.4,-1.6,30.48,WNW,298,3.5,3.5,69,0.00,CLR,,0.00,0.0,WeatherDisplay:10.37,2013-01-24 05:48:00,
2013-01-23 23:53:00,6.3,-1.7,30.48,WSW,253,1.1,0.0,69,0.00,CLR,,0.00,0.0,WeatherDisplay:10.37,2013-01-24 05:53:00,
2013-01-23 23:58:00,6.2,-1.8,30.49,WNW,294,3.5,3.5,69,0.00,CLR,,0.00,0.0,WeatherDisplay:10.37,2013-01-24 05:58:00,